Weather Roundup
Issued by NWS

Home | Current Version | Previous Version | Text Only | Print | Product List | Glossary On
Versions: 1 2 3 4 5 6 7 8 9 10 11 12 13 14 15 16 17 18 19 20 21 22 23 24 25 26 27 28 29 30 31 32 33 34 35 36 37 38 39 40 41 42 43 44 45 46 47 48 49 50
000
NZUS93 KARX 290359
HRRWXR

CURRENT HOURLY OBSERVATIONS ACROSS
MUCH OF THE UPPER MISSISSIPPI VALLEY
NATIONAL WEATHER SERVICE LA CROSSE WI
1100 PM CDT SAT MAY 28 2016


...SOUTHEAST MINNESOTA...


CITY           SKY/WX    TMP DP  RH WIND       PRES   REMARKS
ROCHESTER      LGT RAIN  62  60  93 S8        29.83R
ROCHESTER/MAYO MOCLDY    63  63 100 CALM      29.82S
WINONA         CLOUDY    61  61 100 CALM      29.82R
AUSTIN         CLOUDY    63  61  94 CALM      29.83R
ALBERT LEA     PTCLDY    63  61  94 W3        29.83R
DODGE CENTER   MOCLDY    63  61  94 W6        29.82S
PRESTON        CLOUDY    61  58  91 S5        29.84S
OWATONNA       LGT RAIN  63  61  94 NW5       29.83S
FARIBAULT      CLOUDY    63  63 100 CALM      29.82S
$$

...ELSEWHERE IN MINNESOTA...


CITY           SKY/WX    TMP DP  RH WIND       PRES   REMARKS
MINNEAPOLIS    CLOUDY    64  60  87 W5        29.81R
INTNL FALLS    CLOUDY    57  56  96 N6        29.82S FOG
DULUTH         FOG       56  55  97 E3        29.80S VSB 1
RED WING       CLOUDY    64  63  94 W3        29.80R FOG
REDWOOD FALLS  CLOUDY    62  59  90 W6        29.85R
MANKATO        MOCLDY    63  57  82 N7        29.84R
WORTHINGTON    CLOUDY    60  58  92 W7        29.91R
FAIRMONT       CLOUDY    63  54  72 NW8       29.85R
$$

...SOUTHWEST WISCONSIN...


CITY           SKY/WX    TMP DP  RH WIND       PRES   REMARKS
LA CROSSE      CLOUDY    65  62  90 S6        29.82R
PRAIRIE DU CHI CLEAR     67  59  76 CALM      29.84R
BOSCOBEL       PTCLDY    67  61  81 S6        29.86R
LONE ROCK      NOT AVBL
PLATTEVILLE    MOCLDY    66  63  89 SW6       29.88R
FORT MC COY    CLOUDY    64  63  94 CALM      29.83R
MAUSTON-NEW LI PTCLDY    65  63  91 S5        29.84R
VIROQUA        FAIR      64  63  94 SW9       29.85R
WIS DELLS      CLOUDY    65  62  90 S5        29.88R
$$

...ELSEWHERE IN WISCONSIN...


CITY           SKY/WX    TMP DP  RH WIND       PRES   REMARKS
MILWAUKEE      LGT RAIN  67  63  87 SW13      29.94S
MADISON        CLOUDY    67  63  87 S6        29.90R
GREEN BAY      CLOUDY    65  60  84 S10       29.87R
EAU CLAIRE     NOT AVBL
BLACK RVR FLS  FAIR      64  64 100 S3        29.81R
MEDFORD        MOCLDY    61  61 100 SE3       29.81F
WAUSAU         CLOUDY    68  62  81 S9        29.81R
WIS RAPIDS     MOCLDY    65  61  87 S8        29.85R
MARSHFIELD     CLOUDY    66  61  84 S8        29.82R
RICE LAKE      CLOUDY    62  60  93 CALM      29.80R
$$

...NORTHEAST IOWA...


CITY           SKY/WX    TMP DP  RH WIND       PRES   REMARKS
WATERLOO       CLEAR     65  57  75 SW10      29.84R
DUBUQUE        PTCLDY    65  60  84 SW8       29.89R
DECORAH        CLOUDY    63  63 100 CALM      29.83S
MASON CITY     CLOUDY    63  60  90 SW6       29.84R
CHARLES CITY   CLOUDY    63  63 100 S7        29.83S
OELWEIN        PTCLDY    66  63  88 S9        29.86R
$$

...ELSEWHERE IN IOWA...


CITY           SKY/WX    TMP DP  RH WIND       PRES   REMARKS
DES MOINES     PTCLDY    66  55  67 SW9       29.89R
IOWA CITY      CLEAR     68  60  75 SW8       29.91R
FORT DODGE     CLOUDY    63  57  82 NW3       29.86R
MARSHALLTOWN   CLOUDY    64  59  83 SW10      29.86R
CEDAR RAPIDS   CLEAR     66  62  87 S12       29.88R
$$

...NORTHERN ILLINOIS...


CITY           SKY/WX    TMP DP  RH WIND       PRES   REMARKS
CHICAGO-OHARE  CLOUDY    65  63  93 NW14      29.96R THUNDER FOG
CHICAGO-MIDWAY MOCLDY    77  64  64 SW12      29.95R
MOLINE         PTCLDY    71  59  65 SW8       29.91R
ROCKFORD       CLOUDY    69  65  86 SE3       29.95R
PEORIA         CLOUDY    68  64  87 S6        29.97R
$$

NOTE: "FAIR" INDICATES FEW OR NO CLOUDS BELOW 12,000 FEET WITH NO
SIGNIFICANT WEATHER AND/OR OBSTRUCTIONS TO VISIBILITY. WIND
SPEEDS ARE IN MILES-PER-HOUR.




USA.gov is the U.S. government's official web portal to all federal, state and local government web resources and services.